Probability
19 13 6 19 3 0 0 0 0 0 0 0 0 0 0 0 0 0 13 39 77 87 94 100 100 100 100 100 100 100 100 100 100 100 100 100 100 100 100 100 94 94 100 94 97 97 94 94 90
0 6 10 10 0 0 0 0 0 0 0 0 0 3 6 13 16 19 29 65 81 87 90 94 100 100 100 100 100 100 100 100 100 100 100 100 100 100 100 97 94 94 97 97 97 94 94 90 90
0 10 6 6 0 0 0 0 0 0 3 3 0 3 6 10 19 16 35 65 81 90 90 97 100 100 100 100 100 100 100 100 100 100 100 100 100 100 100 100 100 97 97 97 94 97 97 94 84
10 10 10 3 0 0 0 0 0 0 6 6 6 3 10 10 26 29 48 77 84 90 100 100 100 100 100 100 100 100 100 100 100 100 100 100 100 100 97 100 100 100 97 94 90 90 87 87 87
3 6 6 0 0 0 0 0 3 10 6 10 3 3 10 19 35 39 52 68 84 97 100 100 100 100 100 100 100 100 100 100 100 100 100 100 97 100 100 100 100 100 97 94 90 87 94 87 81
3 0 0 0 0 0 0 0 3 6 10 6 3 3 3 19 42 45 42 48 77 100 100 100 100 100 100 100 100 100 100 100 100 100 100 100 100 100 100 100 100 97 97 94 94 94 90 87 74
3 0 0 0 0 0 0 0 3 10 13 10 10 6 6 26 39 45 48 45 74 97 97 100 100 100 100 100 100 100 100 100 100 100 100 100 100 100 100 100 97 90 90 94 90 71 65 68 68
0 0 0 0 0 0 0 0 6 3 10 13 13 10 6 19 35 39 45 52 71 84 94 97 100 94 100 100 100 100 100 100 100 100 100 100 100 100 100 100 90 87 84 81 55 52 52 65 68
3 0 0 0 0 0 3 3 3 3 6 6 10 13 10 16 35 39 42 48 71 81 87 87 90 90 94 100 100 100 100 100 100 97 100 94 74 74 74 90 81 77 77 65 48 58 55 58 61
0 0 0 0 0 0 3 3 3 3 10 16 13 13 13 23 35 52 52 52 58 58 74 74 81 77 74 87 84 81 87 90 68 61 74 55 55 45 48 84 87 71 71 74 58 55 55 42 10
0 0 0 0 0 3 3 3 6 6 10 13 16 16 16 16 26 45 52 48 52 58 61 55 55 55 65 71 71 68 65 52 61 52 52 42 32 32 35 39 61 48 58 29 42 48 23 13 3
0 0 0 0 0 0 6 3 6 6 10 13 19 16 19 16 19 29 39 42 42 45 55 45 52 45 45 48 68 58 48 45 45 42 35 26 19 19 13 26 23 10 10 6 13 13 6 3 0
0 0 0 0 0 0 6 10 6 10 16 16 19 19 19 26 19 23 35 42 39 42 39 42 39 39 42 39 45 45 48 42 35 32 32 19 16 13 16 19 16 19 13 10 6 0 6 3 0
0 0 0 0 0 6 10 16 23 13 23 26 23 23 26 23 23 29 39 39 39 45 39 45 42 39 35 39 42 39 48 35 32 29 26 19 16 13 3 6 16 16 3 6 3 3 3 0 0
0 0 0 0 0 10 13 16 26 26 26 29 29 29 32 26 29 32 42 58 58 45 61 55 55 52 48 48 39 35 35 26 29 26 23 16 13 10 10 0 0 0 0 3 3 0 0 0 3
0 0 0 0 0 3 13 16 26 35 35 32 32 35 48 45 42 45 48 58 65 61 58 58 68 52 48 48 42 29 29 23 26 19 16 10 13 16 13 6 0 0 0 0 0 3 0 0 0
0 0 0 0 0 3 3 16 29 29 35 39 39 45 52 58 55 52 55 68 77 65 61 58 52 52 45 32 26 32 23 19 23 19 23 16 16 10 6 10 0 3 0 0 0 0 0 0 0
0 0 0 0 0 0 3 6 23 26 32 39 48 55 61 55 55 68 68 74 84 71 65 55 58 58 45 42 35 29 26 26 19 19 19 16 13 13 6 3 3 3 0 0 0 0 0 0 0
0 0 0 0 0 0 0 3 19 23 35 42 48 55 55 58 65 68 71 84 77 77 68 58 61 52 52 52 48 32 26 23 19 13 19 13 13 10 3 6 3 0 0 0 0 0 0 0 0
0 0 0 0 0 0 0 6 13 16 35 48 55 58 68 65 68 74 84 87 81 81 74 68 58 61 61 55 42 39 29 19 16 16 10 6 10 10 6 3 3 0 0 0 0 0 0 0 0
0 0 0 0 0 0 0 6 10 23 35 48 52 65 74 68 74 77 84 87 81 74 74 74 74 68 65 55 48 39 29 16 16 13 6 10 16 13 3 3 0 3 0 0 0 0 0 0 0
0 0 0 0 0 0 0 0 6 13 32 45 58 68 71 68 77 77 77 84 77 81 81 74 74 68 61 58 58 29 23 19 13 6 13 10 16 16 10 3 3 6 3 0 0 3 0 0 0
0 0 0 0 0 0 0 0 6 10 19 35 48 65 68 81 81 84 81 81 77 81 81 74 68 65 68 52 55 32 19 19 13 6 10 13 16 19 16 16 16 10 3 3 3 3 0 0 0
0 0 0 0 0 0 0 3 3 6 13 35 45 55 68 77 81 87 81 81 77 84 84 81 74 65 65 52 45 32 23 23 16 16 10 13 13 19 16 16 16 16 10 3 6 6 6 6 6
0 0 0 0 0 0 0 0 0 3 6 32 48 52 65 71 77 84 81 81 84 81 81 77 68 65 61 55 48 39 32 26 23 19 13 13 13 16 10 16 13 10 10 13 6 3 6 6 6
0 0 0 0 0 0 0 3 3 6 13 26 45 55 68 71 74 87 81 84 84 84 77 74 71 65 61 55 52 39 32 29 23 16 16 13 13 10 13 13 13 16 19 19 6 3 6 6 6
0 0 0 0 0 0 0 0 6 10 19 29 52 58 65 65 74 77 84 84 81 77 77 77 74 74 61 58 48 45 32 29 32 19 19 19 10 16 16 16 10 13 13 13 10 6 6 6 6
0 0 0 0 0 0 0 0 0 6 23 29 48 58 65 65 68 71 74 71 77 74 74 77 74 71 68 61 48 42 39 35 39 32 29 23 19 16 19 16 10 10 6 10 10 10 6 3 3
0 0 0 0 0 0 0 0 0 6 29 35 45 58 68 68 71 68 68 71 71 68 68 71 68 61 61 58 45 42 35 29 23 29 26 23 19 10 6 3 6 10 10 10 10 10 6 6 6
0 0 0 0 0 0 0 0 0 3 23 32 42 52 58 65 61 61 65 68 71 68 68 68 61 61 61 55 42 39 32 26 26 23 23 19 16 6 6 10 10 10 10 10 13 10 10 10 6
Height
5922 5921 5921 5921 5920 5919 5917 5917 5916 5915 5914 5913 5912 5911 5911 5910 5910 5911 5908 5905 5904 5903 5904 5904 5904 5904 5904 5904 5904 5904 5904 5904 5904 5904 5903 5903 5903 5902 5902 5901 5901 5900 5900 5900 5900 5900 5899 5899 5900
5924 5924 5924 5923 5921 5920 5919 5919 5918 5917 5916 5915 5914 5913 5912 5911 5909 5909 5908 5906 5905 5904 5905 5905 5904 5905 5905 5905 5905 5905 5905 5905 5905 5904 5904 5904 5903 5903 5902 5902 5901 5901 5901 5901 5900 5900 5900 5900 5900
5927 5926 5926 5924 5923 5922 5922 5921 5920 5919 5918 5917 5916 5915 5914 5912 5910 5909 5908 5907 5906 5906 5905 5905 5905 5905 5905 5905 5905 5905 5905 5905 5905 5905 5904 5904 5904 5903 5903 5902 5902 5902 5901 5901 5901 5901 5900 5900 5900
5929 5929 5928 5927 5925 5925 5924 5923 5923 5922 5920 5919 5918 5917 5915 5913 5911 5910 5909 5907 5907 5907 5906 5906 5906 5905 5905 5905 5905 5905 5906 5906 5905 5905 5905 5904 5904 5904 5903 5903 5902 5902 5902 5902 5902 5901 5901 5901 5901
5932 5931 5930 5928 5927 5927 5927 5926 5925 5925 5923 5921 5920 5918 5917 5914 5912 5911 5910 5909 5908 5908 5907 5907 5906 5906 5906 5906 5906 5906 5906 5906 5906 5906 5905 5905 5905 5904 5904 5903 5903 5903 5902 5902 5902 5902 5902 5902 5902
5934 5933 5932 5931 5931 5930 5930 5929 5928 5928 5925 5923 5922 5920 5918 5916 5914 5913 5911 5910 5910 5909 5908 5908 5907 5906 5906 5906 5906 5906 5906 5906 5906 5906 5906 5906 5905 5905 5904 5904 5904 5903 5903 5903 5903 5903 5903 5903 5903
5936 5935 5934 5934 5934 5933 5932 5932 5931 5929 5927 5925 5923 5922 5920 5918 5916 5914 5913 5912 5911 5910 5909 5908 5907 5907 5906 5906 5906 5906 5906 5906 5906 5906 5906 5906 5905 5905 5905 5904 5904 5904 5904 5904 5904 5904 5904 5904 5904
5937 5937 5937 5936 5936 5936 5935 5934 5933 5931 5930 5927 5925 5924 5922 5921 5919 5916 5915 5914 5913 5912 5910 5909 5908 5907 5906 5906 5906 5905 5906 5906 5906 5906 5906 5906 5906 5905 5905 5905 5905 5904 5904 5904 5904 5904 5905 5904 5904
5939 5940 5939 5939 5939 5939 5938 5937 5935 5933 5932 5929 5927 5926 5925 5923 5921 5919 5917 5915 5914 5913 5912 5910 5909 5908 5907 5906 5905 5905 5905 5906 5906 5906 5906 5906 5906 5906 5905 5905 5905 5905 5905 5905 5905 5905 5905 5905 5905
5941 5941 5942 5942 5942 5941 5940 5940 5938 5936 5934 5931 5929 5928 5926 5924 5923 5921 5919 5917 5915 5914 5912 5911 5909 5908 5907 5906 5906 5905 5905 5905 5906 5906 5906 5906 5906 5906 5906 5906 5905 5905 5905 5905 5906 5906 5905 5905 5905
5943 5944 5944 5944 5943 5943 5942 5941 5940 5938 5936 5934 5932 5930 5928 5926 5924 5923 5921 5919 5917 5915 5914 5912 5910 5909 5907 5906 5906 5905 5905 5905 5905 5905 5906 5906 5906 5906 5906 5906 5906 5905 5905 5905 5906 5906 5906 5906 5905
5944 5945 5945 5946 5945 5945 5944 5943 5942 5941 5939 5937 5935 5932 5930 5928 5925 5924 5922 5920 5919 5917 5915 5913 5911 5909 5908 5907 5906 5905 5905 5905 5905 5905 5905 5906 5906 5906 5906 5906 5906 5906 5906 5906 5906 5906 5906 5906 5906
5946 5946 5947 5947 5947 5947 5946 5945 5944 5942 5941 5939 5937 5934 5932 5929 5927 5925 5923 5922 5920 5918 5916 5914 5912 5910 5909 5907 5906 5905 5905 5905 5905 5905 5905 5905 5905 5906 5906 5906 5906 5906 5906 5906 5906 5906 5906 5906 5906
5947 5947 5947 5948 5948 5948 5948 5947 5946 5944 5943 5941 5939 5937 5934 5932 5929 5927 5924 5922 5920 5918 5916 5914 5912 5910 5909 5908 5906 5905 5905 5905 5904 5904 5905 5905 5905 5905 5906 5906 5906 5906 5906 5906 5906 5906 5906 5906 5906
5948 5949 5949 5949 5949 5949 5950 5949 5948 5946 5944 5943 5941 5939 5937 5934 5931 5928 5926 5923 5921 5919 5917 5915 5913 5911 5909 5908 5906 5905 5905 5904 5903 5904 5904 5904 5905 5905 5905 5906 5906 5906 5906 5906 5906 5906 5906 5906 5906
5949 5950 5950 5950 5950 5951 5952 5950 5949 5947 5946 5944 5943 5941 5939 5936 5933 5930 5927 5925 5922 5920 5917 5915 5913 5911 5909 5907 5906 5905 5904 5904 5904 5903 5903 5903 5904 5904 5904 5905 5905 5905 5905 5905 5906 5906 5905 5906 5906
5949 5950 5950 5951 5951 5951 5952 5951 5949 5948 5947 5946 5944 5942 5940 5937 5934 5931 5929 5926 5924 5921 5918 5916 5914 5911 5909 5908 5907 5905 5905 5904 5903 5903 5903 5903 5903 5904 5904 5904 5904 5904 5905 5905 5905 5905 5905 5905 5905
5949 5949 5950 5950 5951 5952 5951 5951 5950 5948 5947 5946 5945 5943 5941 5938 5935 5933 5930 5928 5925 5923 5920 5917 5915 5912 5910 5908 5907 5906 5905 5904 5903 5903 5902 5902 5902 5903 5903 5903 5903 5904 5904 5904 5904 5904 5905 5905 5905
5947 5948 5949 5950 5951 5951 5951 5950 5949 5948 5947 5947 5946 5944 5941 5939 5937 5934 5932 5929 5927 5924 5921 5918 5916 5913 5911 5909 5907 5906 5905 5904 5903 5902 5902 5902 5902 5902 5902 5902 5902 5902 5903 5903 5903 5903 5904 5904 5904
5946 5947 5949 5949 5950 5950 5949 5948 5948 5947 5947 5947 5946 5945 5942 5940 5938 5935 5933 5930 5927 5925 5922 5918 5916 5914 5911 5909 5908 5906 5905 5903 5903 5902 5901 5901 5901 5901 5901 5901 5901 5901 5901 5902 5902 5902 5902 5902 5902
5946 5947 5948 5948 5949 5949 5949 5948 5947 5947 5947 5946 5946 5945 5943 5941 5938 5936 5934 5931 5928 5925 5923 5919 5917 5914 5912 5909 5908 5906 5905 5903 5902 5901 5900 5900 5899 5899 5900 5899 5900 5900 5900 5900 5901 5901 5901 5901 5901
5944 5945 5946 5947 5947 5948 5948 5948 5948 5947 5946 5946 5946 5945 5943 5941 5939 5936 5934 5931 5928 5926 5923 5920 5917 5915 5912 5910 5908 5906 5905 5903 5902 5901 5899 5898 5898 5898 5898 5898 5898 5899 5899 5899 5899 5899 5899 5899 5900
5942 5943 5945 5946 5947 5947 5947 5947 5948 5946 5946 5946 5945 5944 5942 5940 5938 5936 5934 5931 5928 5926 5923 5920 5917 5915 5913 5910 5908 5906 5905 5903 5902 5900 5899 5898 5897 5897 5897 5897 5897 5897 5897 5897 5897 5897 5897 5897 5898
5940 5941 5943 5944 5945 5946 5946 5946 5946 5944 5944 5944 5944 5943 5941 5940 5938 5935 5933 5931 5928 5926 5923 5920 5918 5915 5913 5910 5908 5906 5904 5903 5902 5900 5898 5897 5896 5896 5896 5895 5896 5896 5896 5895 5895 5895 5895 5895 5895
5937 5940 5941 5942 5943 5944 5944 5943 5944 5943 5943 5943 5942 5941 5940 5938 5936 5934 5932 5930 5928 5925 5922 5920 5918 5915 5913 5911 5908 5906 5904 5903 5901 5900 5898 5897 5896 5895 5895 5894 5894 5894 5894 5894 5894 5893 5893 5893 5893
5934 5937 5939 5940 5941 5941 5942 5941 5942 5941 5941 5941 5941 5940 5938 5937 5935 5933 5932 5929 5927 5925 5922 5920 5917 5915 5913 5910 5908 5906 5904 5902 5901 5899 5898 5896 5895 5894 5893 5893 5893 5892 5892 5891 5891 5891 5890 5890 5890
5931 5933 5935 5937 5937 5938 5938 5939 5938 5938 5939 5939 5938 5937 5936 5935 5933 5932 5930 5928 5926 5923 5922 5920 5917 5915 5912 5910 5908 5905 5904 5902 5900 5899 5897 5895 5894 5893 5892 5891 5891 5890 5889 5889 5888 5888 5887 5887 5886
5928 5929 5931 5933 5934 5935 5936 5936 5937 5936 5936 5936 5935 5934 5933 5933 5931 5929 5928 5927 5925 5923 5921 5919 5917 5914 5912 5909 5907 5905 5903 5901 5899 5897 5896 5894 5893 5891 5890 5889 5889 5888 5887 5886 5885 5885 5884 5884 5883
5924 5926 5927 5929 5931 5932 5933 5936 5935 5934 5934 5933 5932 5932 5931 5931 5930 5929 5927 5925 5924 5922 5920 5918 5916 5913 5911 5908 5906 5904 5902 5900 5898 5896 5895 5893 5891 5890 5889 5888 5887 5886 5885 5883 5883 5882 5881 5880 5880
5919 5922 5924 5926 5928 5928 5929 5934 5932 5931 5931 5931 5930 5930 5929 5929 5928 5927 5926 5924 5923 5921 5919 5917 5915 5913 5910 5908 5905 5903 5900 5898 5897 5895 5893 5891 5889 5888 5886 5885 5884 5883 5882 5881 5880 5878 5877 5877 5875
Wind_Speed
18 19 19 19 19 19 20 21 19 16 14 14 13 12 12 11 10 9 8 6 8 8 7 6 5 5 5 4 4 4 3 3 3 3 3 2 1 1 2 2 1 2 3 3 3 4 4 4 5
18 18 19 21 20 20 21 21 19 17 16 15 13 12 11 10 9 8 8 8 9 8 7 6 6 5 5 4 4 3 3 3 3 3 3 2 2 2 2 2 2 2 2 2 3 3 4 4 5
18 18 19 21 21 21 21 21 20 19 18 16 14 13 11 10 10 9 9 9 9 9 7 7 6 5 4 4 3 3 2 2 2 3 3 2 2 2 2 2 1 2 2 2 3 3 3 4 4
16 18 20 21 21 22 21 21 21 19 17 16 16 14 12 11 11 10 10 10 10 9 8 7 5 5 4 4 3 2 2 2 2 2 3 3 3 2 1 1 1 1 2 2 3 3 3 4 4
15 18 20 20 21 22 21 21 20 19 18 18 17 15 14 13 12 11 11 11 10 10 9 7 6 5 4 4 3 2 2 2 2 2 3 3 3 2 1 1 1 1 2 2 2 3 4 4 4
17 18 19 19 20 21 21 20 19 19 19 19 18 17 16 15 13 12 12 11 11 10 9 8 6 5 4 3 2 2 2 2 2 2 2 3 2 1 1 1 1 1 2 2 2 3 4 4 4
18 19 18 18 19 19 20 20 18 19 19 19 19 18 18 17 15 13 13 12 11 10 10 9 7 6 4 3 2 2 1 1 1 1 2 2 2 1 1 1 1 1 1 1 2 2 3 4 4
16 17 16 17 16 18 19 19 19 19 19 19 19 18 18 18 16 14 13 12 11 11 11 10 9 7 5 4 3 2 1 0 1 1 1 2 2 1 1 1 1 1 1 1 2 2 3 3 3
15 15 14 14 13 16 17 18 18 19 19 20 19 18 18 17 16 15 14 13 13 12 12 10 9 8 6 5 4 3 1 1 1 1 1 1 1 1 1 1 1 1 1 1 2 2 3 3 3
14 13 11 12 12 14 15 17 18 19 19 20 19 19 18 17 16 16 15 15 14 14 13 11 10 9 7 6 4 3 2 1 1 1 1 1 1 1 0 1 1 1 1 2 2 2 2 2 2
11 9 9 9 10 13 14 16 18 19 20 19 19 19 19 18 17 17 17 16 16 15 13 12 10 8 7 6 5 4 3 2 1 1 1 1 0 0 0 1 1 1 1 1 1 1 1 1 2
9 7 8 9 9 11 13 15 16 18 19 19 18 19 18 19 19 18 17 17 16 16 15 13 11 9 8 7 6 4 4 2 1 1 1 1 1 1 1 2 2 2 1 1 1 0 1 1 1
8 8 9 10 10 10 12 14 16 16 18 19 19 19 18 18 19 19 18 17 17 16 15 14 12 10 8 7 6 4 3 2 1 1 2 2 2 2 2 2 2 2 1 1 1 1 1 0 0
10 8 9 10 10 10 12 14 15 16 17 18 18 18 18 18 18 18 18 18 18 17 16 15 13 11 9 8 6 5 4 2 1 2 1 2 2 2 2 2 2 2 1 1 1 1 1 1 1
9 8 8 8 8 10 11 12 14 15 16 17 17 17 17 17 18 18 18 18 18 18 17 15 13 13 11 9 6 5 5 3 1 1 1 1 2 2 3 2 3 2 2 2 1 1 1 1 2
10 7 6 6 6 8 10 11 13 14 15 16 16 17 17 18 18 18 18 18 18 18 17 16 15 14 13 10 8 7 5 3 2 1 0 0 1 2 2 3 3 3 3 2 2 2 1 2 2
10 7 5 2 4 7 10 11 11 13 15 15 16 16 17 18 18 18 18 18 17 17 17 17 16 14 13 11 9 8 6 4 3 1 1 0 1 1 2 2 3 3 3 3 3 3 3 2 2
10 7 4 1 3 7 9 9 10 12 13 14 16 16 17 18 18 18 18 17 17 16 17 17 16 14 13 11 10 9 7 5 3 2 1 1 1 2 2 3 3 3 3 3 3 3 4 3 3
9 7 4 1 5 7 8 8 9 10 12 14 15 16 16 17 17 17 17 17 17 17 16 17 16 14 13 12 11 10 8 6 4 3 1 1 2 2 3 3 4 3 3 4 4 4 5 4 4
10 8 6 4 3 3 5 7 9 12 12 13 15 15 16 16 16 16 17 17 17 17 17 16 16 14 13 12 11 10 9 8 5 4 2 2 2 2 3 3 4 4 4 4 4 4 5 6 6
12 11 9 7 5 3 4 6 9 12 12 13 14 14 15 16 16 16 16 16 17 17 17 16 15 15 13 11 11 9 9 8 7 6 4 3 3 3 3 4 4 4 4 5 5 5 5 5 6
14 14 13 10 8 6 7 7 9 11 12 12 12 13 15 15 15 15 15 15 16 16 16 15 14 14 14 12 10 9 8 8 8 8 5 4 3 4 4 4 5 5 5 6 6 6 6 6 6
15 16 15 13 11 10 10 10 9 10 11 11 13 14 16 15 15 15 15 14 15 15 15 15 15 14 13 13 11 9 9 8 8 7 6 4 3 3 3 4 5 6 6 6 7 8 7 8 9
16 16 14 13 11 9 9 11 11 10 10 12 14 15 15 15 14 14 14 14 14 14 14 14 14 14 13 12 11 10 9 9 8 8 7 5 4 3 3 3 5 6 6 6 6 7 8 9 10
17 16 14 13 11 9 8 11 12 11 11 12 14 14 15 13 13 13 14 14 14 14 14 14 14 14 13 12 12 11 10 10 9 8 7 6 4 4 4 4 5 6 6 7 7 8 8 9 10
17 16 16 14 12 10 9 10 11 10 10 11 12 13 14 12 11 11 12 12 13 14 13 14 13 13 13 12 12 11 10 10 9 8 7 7 6 5 4 4 6 7 7 7 8 9 10 11 11
18 17 16 15 14 12 9 10 10 10 11 11 11 12 12 12 12 10 11 12 12 13 13 13 13 12 12 12 12 11 10 10 10 9 8 7 6 5 5 5 6 7 8 8 9 10 10 11 12
19 18 18 17 16 14 12 11 11 13 12 12 11 11 11 12 13 11 11 11 13 13 13 13 13 12 12 12 12 11 11 10 10 10 9 9 8 6 6 6 6 7 8 8 9 10 10 11 12
20 20 19 18 18 17 15 13 11 12 13 13 12 12 11 12 14 13 12 12 13 12 13 13 13 12 12 13 12 12 11 11 11 11 10 9 8 7 7 7 8 8 9 9 10 11 12 13 14
19 20 20 19 18 19 19 16 13 13 13 13 14 14 12 12 13 13 13 14 13 12 12 12 12 12 12 13 13 13 12 11 11 11 11 10 9 9 9 9 9 10 11 11 11 12 12 14 14
Wind_Direction
76 71 65 59 52 52 54 55 55 56 54 51 45 43 44 46 51 54 54 62 67 69 69 68 65 62 60 52 40 34 26 18 16 7 1 360 14 25 38 58 101 116 118 119 115 117 119 113 112
79 72 64 58 51 49 49 51 53 54 52 51 47 45 45 44 48 49 51 55 61 63 65 64 63 62 56 48 36 25 23 18 12 6 5 5 5 18 39 54 86 116 124 122 124 128 125 119 119
84 74 64 55 51 50 49 48 45 46 48 49 47 45 45 48 50 49 51 51 54 57 58 57 58 56 53 46 36 25 20 14 12 9 5 358 353 9 43 61 89 110 113 117 122 132 123 122 126
82 72 63 54 52 51 47 44 43 44 44 48 46 45 46 51 53 52 53 50 51 50 49 47 49 50 49 44 36 26 20 12 14 9 3 359 0 360 40 73 101 111 110 113 116 121 114 113 112
80 68 61 55 52 49 47 43 40 41 42 47 47 46 49 52 56 55 54 51 49 48 45 43 46 51 47 44 41 36 31 21 14 11 9 11 18 27 65 71 84 103 112 107 113 113 109 108 106
76 67 59 51 49 46 45 43 38 39 39 45 48 47 50 52 54 53 52 51 48 46 43 41 41 44 43 41 37 33 31 24 8 354 6 14 14 28 74 79 74 89 108 113 115 115 108 105 102
77 67 58 51 45 44 42 41 36 35 36 40 47 46 47 52 52 50 49 48 44 41 40 40 39 40 37 35 29 11 4 3 356 345 351 3 13 27 106 97 78 80 99 112 108 110 105 102 98
77 72 57 47 40 43 41 37 34 33 35 39 43 44 46 51 53 50 46 44 42 40 40 41 41 37 33 29 26 19 15 340 314 329 336 358 12 37 106 119 102 98 102 104 107 111 111 109 103
74 72 58 45 40 43 43 37 33 32 33 37 39 40 42 46 51 50 45 43 42 41 38 38 37 36 31 31 31 29 28 6 340 11 2 3 15 43 99 139 142 132 111 106 110 114 114 111 103
70 68 60 46 38 41 42 38 36 33 33 35 38 38 39 42 47 47 44 43 39 40 39 36 32 34 33 33 28 26 28 8 337 329 350 343 12 43 136 173 154 133 123 119 115 110 118 122 115
79 64 61 51 37 40 43 39 37 34 34 36 38 36 36 38 42 44 45 42 39 38 38 36 32 31 29 28 22 20 20 4 308 286 292 279 245 350 193 202 193 170 151 146 140 132 136 134 129
97 80 66 56 45 40 38 37 34 32 32 35 36 36 35 35 37 41 41 39 36 35 34 32 28 25 23 22 17 18 15 15 341 275 267 235 229 214 203 201 173 158 151 154 168 211 212 162 141
112 92 74 58 48 41 37 33 30 28 30 33 33 32 32 32 32 34 35 37 35 32 29 29 30 27 24 19 15 18 10 1 343 282 256 244 229 210 188 174 167 162 162 168 214 237 241 260 263
115 91 74 63 48 36 25 22 25 24 25 27 31 30 29 31 30 30 30 31 30 28 26 26 28 27 24 19 17 13 3 343 307 286 267 241 225 203 183 184 189 194 212 247 251 249 254 275 284
120 99 76 61 43 24 14 16 18 18 19 23 28 27 27 27 26 25 25 26 25 24 24 24 24 26 25 27 25 18 15 24 346 290 268 245 228 217 200 200 208 223 238 251 246 240 239 253 258
123 111 84 54 29 13 3 4 14 17 16 19 20 20 22 22 22 22 22 23 23 22 22 22 22 23 25 27 24 24 21 23 15 336 239 192 211 220 210 218 226 232 240 240 226 228 239 240 246
134 127 119 85 16 354 347 355 8 15 15 17 16 15 16 18 19 18 19 21 20 18 19 20 18 19 23 26 27 23 25 16 16 23 346 330 232 234 235 229 230 234 245 238 225 221 233 237 248
141 139 144 136 323 322 328 340 357 8 12 15 14 12 12 16 16 16 16 18 18 16 15 16 17 16 17 24 23 19 20 17 14 15 18 336 291 254 243 237 234 236 248 240 226 225 238 243 254
146 143 154 258 294 306 320 326 341 351 4 5 6 9 12 13 13 14 13 14 16 15 14 14 13 14 16 17 17 17 17 17 6 360 6 347 297 271 250 239 233 234 234 230 236 235 237 242 252
167 170 187 217 253 303 319 325 332 336 344 351 355 359 5 9 10 10 11 12 13 13 12 10 14 14 13 11 9 10 13 16 16 7 352 314 298 267 243 238 237 236 229 232 241 246 247 247 247
181 189 203 213 216 237 277 304 314 326 338 342 347 352 359 6 5 7 8 9 8 10 10 11 12 13 12 8 6 6 10 12 10 1 343 317 297 279 260 245 241 239 235 235 243 251 255 254 250
196 201 210 216 228 246 261 275 296 312 325 339 342 344 351 356 357 1 3 4 4 5 6 8 11 13 11 10 7 3 1 2 1 0 353 333 307 290 278 249 239 238 241 246 252 257 262 259 256
208 210 212 218 225 236 254 269 288 301 319 334 337 339 344 349 352 356 357 357 359 2 5 8 12 13 12 10 8 5 2 359 357 356 354 340 316 297 278 256 255 251 251 256 258 260 263 263 262
213 216 217 221 224 227 247 264 280 293 310 322 330 337 344 344 346 352 351 353 357 360 3 6 8 9 10 11 9 5 3 1 358 353 347 340 325 297 277 270 261 260 259 264 268 264 266 266 266
219 221 220 220 217 215 235 263 278 286 301 312 321 331 338 340 341 346 348 353 354 356 0 3 3 4 5 5 4 3 1 1 359 358 356 350 336 318 295 276 270 270 268 266 267 271 272 271 270
224 224 224 222 217 220 238 265 273 280 295 299 311 325 335 340 337 341 346 350 351 353 356 359 360 0 1 2 0 359 359 360 358 357 355 353 346 332 312 284 273 271 271 273 272 273 276 274 272
224 226 227 226 224 226 241 262 273 289 289 296 305 320 333 335 332 333 343 347 348 352 353 353 357 358 359 360 360 358 355 354 354 349 343 344 337 333 323 304 283 276 278 276 275 273 276 276 277
223 226 226 225 226 231 241 256 279 293 291 296 302 314 330 334 334 335 337 338 341 341 345 349 352 356 358 359 356 355 355 353 353 352 344 337 334 324 321 317 309 298 288 284 280 281 278 281 285
223 226 229 231 232 236 242 249 269 288 296 301 312 316 325 338 339 336 333 331 335 337 340 343 348 353 358 358 355 352 350 348 349 348 344 337 337 331 322 312 307 301 296 292 287 283 283 283 284
222 228 232 236 237 240 247 251 264 280 289 299 309 311 313 328 332 331 329 326 329 336 343 345 344 346 349 352 352 352 349 347 343 341 337 334 330 325 319 312 305 300 297 293 289 287 288 288 288